Voltar ao catálogo

STARLINK-35416

AtivoComunicaçõesVLEO
NORAD 66248·PAYLOAD·🇺🇸 United States

Lançado Oct 29, 2025 de Cape Canaveral Space Force Station

Loading…

Próximas Passagens (próximas 24 horas)

TLE

AtualizadoSource: CelesTrak SupGP

Época: Sep 15, 2026, 03:14 UTC

1 66248C 25245Q   26258.13520833  .00033726  00000+0  10846-2 0  2581
2 66248  53.1580 122.4555 0001294  81.3409 234.1297 15.31683695    11

Acompanhe STARLINK-35416 em tempo real com AllMySat

Download on the App Store